Weather History for LKMT - November, 2013

Change the Weather History Date:

Tuesday, November 12, 2013

  Actual Average (EPKT) Record (EPKT)
Temperature  
Mean Temperature 36 °F -  
Max Temperature 39 °F 41 °F - (-1)
Min Temperature 32 °F 31 °F - (-1)
Degree Days  
Heating Degree Days 30    
Moisture  
Dew Point 34 °F    
Average Humidity 94    
Maximum Humidity 100    
Minimum Humidity 80    
Precipitation  
Precipitation 0.00 in 0.05 in - ()
Sea Level Pressure  
Sea Level Pressure 30.36 in    
Wind  
Wind Speed 6 mph ()    
Max Wind Speed 9 mph    
Max Gust Speed -    
Visibility 1.7 miles    
Events Fog    
Averages and records for this station are not official NWS values.
T = Trace of Precipitation, MM = Missing Value Source: Averaged Metar Reports

Daily Weather History Graph

Daily Weather History Graph

Search for Another Location

Airport or City:

Trip Planner

Search our weather history database for the weather conditions in past years. The results will help you decide how hot, cold, wet, or windy it might be!

Date:

Astronomy

Nov. 12, 2013 Rise Set
Actual Time 6:54 AM CET 4:08 PM CET
Civil Twilight 6:19 AM CET 4:43 PM CET
Nautical Twilight 5:40 AM CET 5:22 PM CET
Astronomical Twilight 5:02 AM CET 5:59 PM CET
Moon 1:39 PM CET (11/12) 12:55 AM CET (11/12)
Length of Visible Light 10h 23m
Length of Day
9h 13m
Waxing Gibbous, 74% of the Moon is Illuminated
Nov 12
Waxing Gibbous
Nov 17
Full
Nov 25
Last Quarter
Dec 3
New
Dec 9
First Quarter

Hourly Weather History & Observations

Time (CET) Temp. Windchill Dew Point Humidity Pressure Visibility Wind Dir Wind Speed Gust Speed Precip Events Conditions
12:00 AM 35.6 °F 28.6 °F 33.8 °F 93% 30.45 in 2.8 mi NNE 9.2 mph - N/A   Mostly Cloudy
12:30 AM 35.6 °F 29.9 °F 33.8 °F 93% 30.45 in 2.5 mi NNE 6.9 mph - N/A   Mostly Cloudy
1:00 AM 36 °F - 35 °F 93% 30.51 in 2 mi NNE 8.9 mph - -   Mist
1:00 AM 35.6 °F 29.9 °F 35.6 °F 100% 30.45 in 2.5 mi NNE 6.9 mph - N/A   Mostly Cloudy
1:30 AM 35.6 °F 29.2 °F 33.8 °F 93% 30.48 in 2.2 mi NNE 8.1 mph - N/A   Overcast
2:00 AM 35.6 °F 29.9 °F 35.6 °F 100% 30.48 in 1.9 mi NNE 6.9 mph - N/A   Overcast
2:30 AM 35.6 °F 29.2 °F 35.6 °F 100% 30.45 in 1.9 mi NNE 8.1 mph - N/A   Overcast
3:00 AM 35.6 °F 28.6 °F 35.6 °F 100% 30.45 in 1.9 mi North 9.2 mph - N/A   Mostly Cloudy
3:30 AM 35.6 °F 29.2 °F 33.8 °F 93% 30.45 in 1.9 mi NNE 8.1 mph - N/A   Mostly Cloudy
4:00 AM 33.8 °F 27.0 °F 32.0 °F 93% 30.42 in 1.9 mi NNE 8.1 mph - N/A   Scattered Clouds
4:30 AM 32.0 °F 24.8 °F 32.0 °F 100% 30.42 in 1.6 mi NNE 8.1 mph - N/A   Partly Cloudy
5:00 AM 32.0 °F 24.2 °F 32.0 °F 100% 30.42 in 1.2 mi NNE 9.2 mph - N/A   Mostly Cloudy
5:07 AM 32.0 °F 24.8 °F 32.0 °F 100% 30.42 in 0.5 mi NNE 8.1 mph - N/A Fog Patches of Fog
5:21 AM 32.0 °F 24.2 °F 32.0 °F 100% 30.42 in 0.3 mi NE 9.2 mph - N/A Fog Fog
5:30 AM 32.0 °F 24.8 °F 32.0 °F 100% 30.42 in 0.3 mi NE 8.1 mph - N/A Fog Fog
6:00 AM 32.0 °F 24.2 °F 32.0 °F 100% 30.42 in 0.4 mi NE 9.2 mph - N/A Fog Fog
6:10 AM 33.8 °F 27.0 °F 32.0 °F 93% 30.42 in 0.7 mi NNE 8.1 mph - N/A   Overcast
6:30 AM 33.8 °F 27.0 °F 32.0 °F 93% 30.42 in 1.0 mi NE 8.1 mph - N/A   Overcast
7:00 AM 33 °F - 32 °F 96% 30.47 in 1 mi NNE 8.9 mph - - Fog Light Fog
7:00 AM 33.8 °F 27.0 °F 32.0 °F 93% 30.42 in 0.8 mi NNE 8.1 mph - N/A   Overcast
7:30 AM 33.8 °F 27.7 °F 33.8 °F 100% 30.42 in 0.9 mi NNE 6.9 mph - N/A   Overcast
8:00 AM 33.8 °F 27.0 °F 33.8 °F 100% 30.42 in 1.1 mi NNE 8.1 mph - N/A   Overcast
8:30 AM 35.6 °F 29.2 °F 33.8 °F 93% 30.42 in 1.4 mi NNE 8.1 mph - N/A   Overcast
9:00 AM 35.6 °F 29.2 °F 33.8 °F 93% 30.42 in 1.7 mi NNE 8.1 mph - N/A   Overcast
9:30 AM 35.6 °F 29.9 °F 35.6 °F 100% 30.42 in 1.7 mi NNE 6.9 mph - N/A   Overcast
10:00 AM 37.4 °F 32.1 °F 35.6 °F 93% 30.39 in 2.2 mi NE 6.9 mph - N/A   Overcast
10:30 AM 37.4 °F 33.8 °F 35.6 °F 93% 30.39 in 2.2 mi NNE 4.6 mph - N/A   Overcast
11:00 AM 37.4 °F 33.8 °F 35.6 °F 93% 30.39 in - NNE 4.6 mph - N/A   Overcast
11:30 AM 39.2 °F 37.0 °F 35.6 °F 87% 30.39 in 2.5 mi NNE 3.5 mph - N/A   Overcast
12:00 PM 39.2 °F 37.0 °F 35.6 °F 87% 30.36 in 2.8 mi ENE 3.5 mph - N/A   Overcast
12:30 PM 39.2 °F - 35.6 °F 87% 30.36 in 2.8 mi Calm Calm - N/A   Overcast
1:00 PM 39 °F - 35 °F 80% 30.39 in 3 mi 2.2 mph - -   Mist
1:00 PM 39.2 °F - 35.6 °F 87% 30.36 in 2.8 mi Variable 2.3 mph - N/A   Overcast
1:30 PM 39.2 °F - 35.6 °F 87% 30.33 in 3.1 mi Variable 2.3 mph - N/A   Overcast
2:00 PM 39.2 °F - 35.6 °F 87% 30.33 in 2.8 mi Variable 2.3 mph - N/A   Overcast
2:30 PM 39.2 °F - 35.6 °F 87% 30.33 in 3.1 mi Variable 2.3 mph - N/A   Mostly Cloudy
3:00 PM 39.2 °F - 35.6 °F 87% 30.30 in 2.8 mi West 2.3 mph - N/A   Partly Cloudy
3:30 PM 39.2 °F - 35.6 °F 87% 30.30 in 2.8 mi WNW 2.3 mph - N/A   Mist
4:00 PM 37.4 °F - 35.6 °F 93% 30.30 in 2.5 mi West 2.3 mph - N/A   Mist
4:30 PM 37.4 °F - 35.6 °F 93% 30.30 in 2.5 mi WSW 2.3 mph - N/A   Mist
5:00 PM 37.4 °F - 33.8 °F 87% 30.30 in 2.5 mi SSW 2.3 mph - N/A   Mist
5:30 PM 37.4 °F - 33.8 °F 87% 30.30 in 2.2 mi SSW 2.3 mph - N/A   Mist
6:00 PM 35.6 °F - 33.8 °F 93% 30.30 in 2.2 mi SSW 2.3 mph - N/A   Mist
6:30 PM 35.6 °F - 33.8 °F 93% 30.30 in 1.9 mi SSW 2.3 mph - N/A   Mist
7:00 PM 33 °F - 32 °F 94% 30.34 in 2 mi SW 2.2 mph - -   Mist
7:00 PM 33.8 °F - 32.0 °F 93% 30.27 in 2.2 mi SW 2.3 mph - N/A   Mist
7:30 PM 33.8 °F 30.8 °F 32.0 °F 93% 30.27 in - WSW 3.5 mph - N/A   Mist
8:00 PM 32.0 °F 26.4 °F 32.0 °F 100% 30.27 in 1.6 mi SSW 5.8 mph - N/A   Mist
8:30 PM 32.0 °F 26.4 °F 32.0 °F 100% 30.27 in 1.6 mi SW 5.8 mph - N/A   Partly Cloudy
8:31 PM 32.0 °F 26.4 °F 32.0 °F 100% 30.27 in 1.6 mi SW 5.8 mph - N/A   Mostly Cloudy
9:00 PM 33.8 °F 30.8 °F 32.0 °F 93% 30.27 in 1.2 mi SSW 3.5 mph - N/A Fog Fog
9:01 PM 33.8 °F 30.8 °F 33.8 °F 100% 30.27 in 0.7 mi SSW 3.5 mph - N/A   Mostly Cloudy
9:05 PM 33.8 °F 29.6 °F 33.8 °F 100% 30.27 in 0.4 mi SW 4.6 mph - N/A Fog Fog
9:30 PM 35.6 °F 30.7 °F 33.8 °F 93% 30.27 in 0.4 mi SW 5.8 mph - N/A Fog Fog
10:00 PM 35.6 °F 30.7 °F 33.8 °F 93% 30.27 in 0.2 mi WSW 5.8 mph - N/A Fog Fog
10:30 PM 33.8 °F 29.6 °F 33.8 °F 100% 30.24 in 0.2 mi WSW 4.6 mph - N/A Fog Fog
11:00 PM 35.6 °F - 33.8 °F 93% 30.24 in 0.2 mi WSW 2.3 mph - N/A Fog Fog
11:30 PM 35.6 °F - 33.8 °F 93% 30.24 in 0.2 mi Calm Calm - N/A Fog Fog